Flag for Japan Weather past 2 weeks in Kawasaki, Japan

Now
64 °F

Scattered showers. Partly sunny.


Feels Like: 64 °F
Forecast: 55 / 68 °F
Wind: 17 mph from Southeast

Location: Tokyo International Airport

Current Time: Apr 25, 2015 at 4:17:00 PM

Latest Report: Apr 25, 2015 at 3:30 PM


Visibility: N/A

Pressure: 30.01 "Hg

Humidity: 56%

Dew point: 48 °F

Location of KawasakiLocation

Historic Weather in Kawasaki — Graph

°F

Kawasaki temperature yesterday

Maximum temperature yesterday: 70 °F (at 10:30 AM)
Minimum temperature yesterday: 59 °F (at 2:00 AM)
Average temperature yesterday: 64 °F

Past Weeks' High & Low Weather Summary

 TemperatureHumidityPressure
High72 °F (Apr 17, 10:30 AM)100% (Apr 11, 7:30 AM)30.45 "Hg (Apr 11, 7:30 AM)
Low48 °F (Apr 10, 6:00 PM)42% (Apr 18, 11:00 AM)29.47 "Hg (Apr 15, 4:30 PM)
Average59 °F77%29.97 "Hg
* Reported Apr 10 3:00 PM — Apr 25 3:00 PM, Kawasaki, Weather by CustomWeather, © 2015

Note: Actual official high and low records may vary slightly from our data, if they occured in-between our weather recording intervals... More about our weather records

Advertising

Kawasaki weather history for previous 24 hours

 ConditionsComfort  
Time TempWeatherWind HumidityBarometerVisibility
3:00 PM
Sat, Apr 25
64 °FScattered clouds.18 mph64%29.98 "HgN/A
2:30 PM66 °FScattered clouds.15 mph64%29.98 "HgN/A
2:00 PM66 °FScattered showers. Partly sunny.7 mph60%29.98 "HgN/A
1:30 PM66 °FPartly sunny.5 mph64%29.98 "HgN/A
1:00 PM66 °FScattered clouds.8 mph64%29.98 "HgN/A
12:30 PM66 °FScattered clouds.8 mph60%30.01 "HgN/A
12:00 PM68 °FScattered clouds.10 mph56%30.01 "HgN/A
11:30 AM66 °FScattered clouds.10 mph60%30.01 "HgN/A
11:00 AM66 °FPartly sunny.10 mph56%30.01 "HgN/A
10:30 AM66 °FPartly sunny.10 mph60%30.01 "HgN/A
10:00 AM64 °FPartly sunny.12 mph60%30.04 "HgN/A
9:30 AM64 °FPassing clouds.12 mph60%30.04 "HgN/A
9:00 AM64 °FSunny.12 mph64%30.04 "Hg10 mi
8:30 AM63 °FSunny.10 mph68%30.04 "Hg10 mi
8:00 AM63 °FPassing clouds.12 mph73%30.04 "HgN/A
7:30 AM63 °FPassing clouds.13 mph73%30.04 "HgN/A
7:00 AM63 °FSunny.8 mph77%30.04 "Hg10 mi
6:30 AM63 °FSunny.9 mph77%30.04 "Hg10 mi
6:00 AM61 °FClear.7 mph83%30.01 "Hg6 mi
5:30 AM61 °FClear.9 mph83%30.01 "Hg6 mi
5:00 AM61 °FClear.8 mph83%30.01 "Hg6 mi
4:30 AM61 °FClear.12 mph88%29.98 "Hg10 mi
4:00 AM61 °FClear.9 mph83%29.98 "Hg10 mi
3:30 AM61 °FClear.9 mph83%29.98 "Hg10 mi
3:00 AM63 °FClear.10 mph77%29.95 "Hg10 mi
2:30 AM63 °FClear.9 mph73%29.95 "Hg10 mi
2:00 AM63 °FClear.7 mph73%29.95 "Hg10 mi
1:30 AM63 °FClear.8 mph73%29.95 "Hg10 mi
1:00 AM63 °FClear.8 mph73%29.92 "Hg10 mi
12:30 AM64 °FPassing clouds.10 mph68%29.95 "HgN/A
12:00 AM64 °FClear.12 mph68%29.95 "Hg10 mi
11:30 PM
Fri, Apr 24
64 °FClear.15 mph68%29.95 "Hg10 mi
11:00 PM63 °FClear.17 mph73%29.95 "Hg10 mi
10:30 PM63 °FClear.18 mph77%29.95 "Hg10 mi
10:00 PM63 °FClear.13 mph77%29.95 "Hg10 mi
9:30 PM63 °FClear.15 mph77%29.95 "Hg10 mi
9:00 PM63 °FClear.18 mph77%29.95 "Hg10 mi
8:30 PM63 °FClear.20 mph83%29.95 "Hg10 mi
8:00 PM64 °FClear.21 mph78%29.95 "Hg10 mi
7:30 PM63 °FPassing clouds.21 mph83%29.95 "HgN/A
7:00 PM64 °FClear.22 mph73%29.95 "Hg10 mi
6:30 PM64 °FPartly cloudy.22 mph78%29.92 "HgN/A
6:00 PM64 °FBroken clouds.20 mph78%29.95 "HgN/A
5:30 PM64 °FBroken clouds.21 mph78%29.95 "HgN/A
5:00 PM66 °FBroken clouds.21 mph73%29.95 "HgN/A
4:30 PM64 °FPartly sunny.22 mph78%29.95 "HgN/A
4:00 PM66 °FPartly sunny.25 mph73%29.95 "HgN/A
Weather by CustomWeather, © 2015

See weather overviewHow to use our weather pages